Weather in Chubovka

Russia / Samara Oblast     53°24′02″N   50°33′52″E
temp.,
°C
wind,
m/s
gust,
m/s
humid.,
%
clouds,
%
prec.,
mm/h
press.,
hPa
HPBL,
m
8 march, mon
mon801:00−7ssw81693100 0.4 1004791
04:00−5ssw91594100 1.9 10011041
07:00−4sw91693100 0.8 998891
10:00−2wsw81488100 1.3 10001397
13:00−1wsw7127341 0.2 10031353
16:00−2sw5108029 0.2 1003851
19:00−3ssw5995100 0.2 1003435
22:00−3sw61295100 1.1 1002706
9 march, tue
tue901:00−6wsw71484100 0.2 1003591
04:00−10w5119165 0.2 1007260
07:00−14wsw239259 0.0 100925
10:00−11wsw119045 0.0 101186
13:00−7se2185100 0.0 1010287
16:00−7ese2287100 0.0 1010284
19:00−9ene1292100 0.0 100821
22:00−11nnw3594100 0.0 1008123
10 march, wed
wed1001:00−14nw4797100 0.0 1008193
04:00−17nw479798 0.0 1009121
07:00−14nw5109494 0.1 1010361
10:00−15nw7119297 0.1 1012499
13:00−15nw71091100 0.1 1014554
16:00−17nw71091100 0.1 1015595
19:00−19nw61194100 0.1 1017505
22:00−22nw51196100 0.1 1019279
11 march, thu
thu1101:00−25nw499661 0.0 1020169
04:00−27nw479756 0.0 1022111
07:00−28nw369856 0.0 102387
10:00−22nw589562 0.0 1024300
13:00−17wnw589180 0.0 1024416
16:00−14wnw599183 0.1 1023596
19:00−17wnw3794100 0.1 1024161
22:00−16wnw379596 0.1 1025159
12 march, fri
fri1201:00−16w489682 0.0 1026179
04:00−17wnw349783 0.1 102782
07:00−18nw349720 0.0 102853
10:00−14nw489111 0.0 1030276
13:00−10nw46850 0.0 1031336
16:00−9nw35840 0.0 1031317
19:00−13wnw23850 0.0 103221
22:00−15ssw22830 0.0 103320